Regional Weather Roundup
Issued by NWS Jackson, KY

Home | Current Version | Previous Version | Text Only | Print | Product List | Glossary Off
Versions: 1 2 3 4 5 6 7 8 9 10 11 12 13 14 15 16 17 18 19 20 21 22 23 24 25 26 27

000
ASUS43 KJKL 262110
RWRJKL

EAST KENTUCKY HOURLY WEATHER ROUNDUP
NATIONAL WEATHER SERVICE JACKSON KY
500 PM EDT THU APR 26 2018

NOTE: "FAIR" INDICATES FEW OR NO CLOUDS BELOW 12,000 FEET WITH
NO SIGNIFICANT WEATHER AND/OR OBSTRUCTIONS TO VISIBILITY.

* THESE REPORTS ARE NOT UNDER NWS QUALITY CONTROL AND MAY NOT
  REPORT WEATHER SUCH AS PRECIPITATION AND FOG.

KYZ079-080-083-085-087-088-110-112-115-119-120-262200
...EASTERN KENTUCKY...

CITY           SKY/WX    TMP DP  RH WIND       PRES   REMARKS
JACKSON        CLOUDY    62  42  47 CALM      29.85F
LONDON         CLOUDY    60  46  59 SW3       29.85F
SOMERSET*      LGT RAIN  59  46  63 CALM      29.87S
WILLIAMSBURG*  CLOUDY    55  54  94 CALM      29.86F
MIDDLESBORO*   DRIZZLE   58  46  63 CALM      29.86F
HARLAN APT*    CLOUDY    58  44  58 CALM      29.86S
PIKE CO APT*   CLOUDY    60  42  51 CALM      29.86F
BIG SANDY APT* CLOUDY    62  43  49 CALM      29.86S
MOREHEAD APT*  MOCLDY    64  43  45 SW3       29.86R
ASHLAND*         N/A     65  48  54 SE7       29.84F
$$

KYZ035-036-041-042-044-050-067-078-099-262200
...CENTRAL KENTUCKY...

CITY           SKY/WX    TMP DP  RH WIND       PRES   REMARKS
MT STERLING*     N/A     64  45  48 CALM      29.86S
FLEMING/MASON*   N/A     65  43  44 CALM      29.85S
DANVILLE*      CLOUDY    61  52  72 CALM      29.86S
LEXINGTON        N/A     66  47  50 NE3       29.84F
FRANKFORT        N/A     67  42  40 CALM      29.82F
LOUISVILLE       N/A     71  41  33 VRB7      29.82F
LEBANON*       MOCLDY    63  48  59 CALM      29.85R
GLASGOW*         N/A     61  52  72 W5        29.86F
BOWLING GREEN  PTSUNNY   61  56  83 SW8       29.87S
$$

KYZ091>093-OHZ055-061-077-WVZ005-015-034-035-042-262200
...SOUTHERN OHIO/WEST VIRGINIA...

CITY           SKY/WX    TMP DP  RH WIND       PRES   REMARKS
COVINGTON      PTSUNNY   67  34  29 NW5       29.83F
COLUMBUS       CLOUDY    64  39  39 SW5       29.84F
DAYTON         PTSUNNY   65  39  38 W5        29.84F
WILMINGTON       N/A     73  42  32 CALM      29.83F
HUNTINGTON       N/A     65  43  44 W3        29.84F
CHARLESTON       N/A     64  41  42 CALM      29.85S
PINEVILLE*     CLOUDY    63  39  41 MISG      29.90R
BECKLEY        CLOUDY    59  35  40 N7        29.85F
BLUEFIELD      CLOUDY    58  37  45 W5        29.86S
LOGAN CO APT*    N/A     61  41  48 CALM      29.85S
$$

VAZ002-007-008-TNZ017-027-036-066-071-262200
...SOUTHWEST VIRGINIA/EAST TENNESSEE...

CITY           SKY/WX    TMP DP  RH WIND       PRES   REMARKS
WISE*          CLOUDY    55  43  62 CALM      29.89S
JONESVILLE*    LGT RAIN  57  46  67 CALM      29.89S
ABINGDON*      DRIZZLE   59  48  67 W6        29.87R
BRISTOL        LGT RAIN  58  50  75 W6        29.87S
MORRISTOWN*    PTCLDY    55  50  82 CALM      29.84F
SEVIERVILLE*   MOCLDY    55  52  88 NE6       29.83F
KNOXVILLE      CLOUDY    56  53  90 E7        29.83F
LAFOLLETTE*    CLOUDY    55  50  82 CALM      29.89F
OAK RIDGE      CLOUDY    56  55  97 CALM      29.85F
CROSSVILLE     CLOUDY    52  47  83 E6        29.85F
NASHVILLE      LGT RAIN  58  53  84 N12       29.87R
$$

...KEY TO REMARKS...
VSB - VISIBILITY IN MILES
WCI - WIND CHILL INDEX
HX  - HEAT INDEX

$$




USA.gov is the U.S. government's official web portal to all federal, state and local government web resources and services.